AYN436 UACC-UAAA

Flight info

Callsign AYN436
Flight time 1h 16m
Altitude 37000
Route BANOS1A BANOS N170 NEMKU W333 LUKUS N170 BLH W333 TULPI L998 RITAB W333 ETEDA ETEDA1X
Aircraft A320/M-SDE3FGHIRWY/LB1

Departure

Time 2026-05-07 12:03
Airport Nursultan Nazarbayev International Airport (UACC)

Arrival

Time 2026-05-07 13:19
Airport Almaty International Airport (UAAA)
Time Latitude Longitude Altitude Speed Heading
2026-05-07 12:03 51.01022 71.59201 4434 ft 234 kts 110°
2026-05-07 12:03 51.00461 71.61637 5234 ft 237 kts 111°
2026-05-07 12:03 50.99873 71.64113 6006 ft 241 kts 112°
2026-05-07 12:03 50.99263 71.66616 6788 ft 245 kts 113°
2026-05-07 12:04 50.98587 71.69106 7578 ft 246 kts 123°
2026-05-07 12:04 50.97532 71.71214 8208 ft 254 kts 142°
2026-05-07 12:04 50.96064 71.73042 8567 ft 277 kts 147°
2026-05-07 12:04 50.94512 71.74898 9194 ft 287 kts 147°
2026-05-07 12:05 50.92899 71.76823 10013 ft 291 kts 147°
2026-05-07 12:05 50.91227 71.78813 10412 ft 312 kts 147°
2026-05-07 12:05 50.89424 71.80961 10633 ft 336 kts 147°
2026-05-07 12:05 50.87492 71.83272 10788 ft 359 kts 146°
2026-05-07 12:06 50.85438 71.85739 10903 ft 381 kts 146°
2026-05-07 12:06 50.83288 71.88327 11255 ft 393 kts 146°
2026-05-07 12:06 50.81097 71.90970 11865 ft 398 kts 146°
2026-05-07 12:06 50.78886 71.93642 12508 ft 401 kts 146°
2026-05-07 12:07 50.76657 71.96331 13154 ft 405 kts 146°
2026-05-07 12:07 50.74407 71.99036 13754 ft 408 kts 146°
2026-05-07 12:07 50.72136 72.01753 14289 ft 412 kts 147°
2026-05-07 12:07 50.69838 72.04492 14828 ft 416 kts 147°
2026-05-07 12:08 50.67550 72.07220 15369 ft 419 kts 147°
2026-05-07 12:08 50.65179 72.10041 15898 ft 422 kts 146°
2026-05-07 12:08 50.62854 72.12805 16401 ft 426 kts 146°
2026-05-07 12:08 50.60476 72.15628 16937 ft 429 kts 146°
2026-05-07 12:09 50.58080 72.18469 17461 ft 433 kts 146°
2026-05-07 12:09 50.55664 72.21329 17983 ft 436 kts 146°
2026-05-07 12:09 50.53230 72.24207 18462 ft 439 kts 146°
2026-05-07 12:09 50.50780 72.27100 18928 ft 442 kts 147°
2026-05-07 12:10 50.48310 72.30012 19396 ft 445 kts 147°
2026-05-07 12:10 50.45827 72.32939 19853 ft 448 kts 147°
2026-05-07 12:10 50.43329 72.35882 20319 ft 450 kts 147°
2026-05-07 12:10 50.40815 72.38835 20752 ft 453 kts 147°
2026-05-07 12:11 50.38283 72.41802 21170 ft 455 kts 147°
2026-05-07 12:11 50.35737 72.44784 21576 ft 458 kts 147°
2026-05-07 12:11 50.33180 72.47775 21967 ft 460 kts 147°
2026-05-07 12:11 50.30607 72.50781 22355 ft 462 kts 147°
2026-05-07 12:12 50.28016 72.53801 22747 ft 465 kts 147°
2026-05-07 12:12 50.25448 72.56791 23119 ft 467 kts 147°
2026-05-07 12:12 50.22831 72.59837 23488 ft 470 kts 147°
2026-05-07 12:12 50.20206 72.62889 23794 ft 472 kts 147°
2026-05-07 12:13 50.17663 72.66175 24086 ft 476 kts 140°
2026-05-07 12:13 50.15250 72.69726 24414 ft 477 kts 140°
2026-05-07 12:13 50.12845 72.73275 24889 ft 475 kts 140°
2026-05-07 12:13 50.10448 72.76810 25371 ft 474 kts 140°
2026-05-07 12:14 50.08057 72.80326 25874 ft 472 kts 140°
2026-05-07 12:14 50.05670 72.83825 26346 ft 471 kts 141°
2026-05-07 12:14 50.03290 72.87309 26832 ft 470 kts 141°
2026-05-07 12:14 50.00910 72.90791 27314 ft 469 kts 141°
2026-05-07 12:15 49.99304 72.93138 27605 ft 470 kts 141°
2026-05-07 12:15 49.96923 72.96613 28064 ft 470 kts 141°
2026-05-07 12:15 49.94538 73.00089 28564 ft 468 kts 141°
2026-05-07 12:15 49.92169 73.03536 29095 ft 467 kts 141°
2026-05-07 12:16 49.89830 73.06934 29622 ft 466 kts 141°
2026-05-07 12:16 49.87459 73.10372 30145 ft 464 kts 141°
2026-05-07 12:16 49.85093 73.13801 30533 ft 464 kts 141°
2026-05-07 12:16 49.82731 73.17213 30925 ft 464 kts 142°
2026-05-07 12:17 49.80369 73.20624 31330 ft 464 kts 142°
2026-05-07 12:17 49.78032 73.23996 31740 ft 464 kts 142°
2026-05-07 12:17 49.75673 73.27393 32164 ft 464 kts 142°
2026-05-07 12:17 49.73309 73.30791 32575 ft 464 kts 142°
2026-05-07 12:18 49.70933 73.34169 33002 ft 462 kts 145°
2026-05-07 12:18 49.68365 73.37080 33401 ft 456 kts 154°
2026-05-07 12:18 49.65566 73.39305 33790 ft 448 kts 163°
2026-05-07 12:18 49.62668 73.41054 34168 ft 447 kts 165°
2026-05-07 12:19 49.59763 73.42794 34514 ft 448 kts 165°
2026-05-07 12:19 49.56861 73.44539 34852 ft 448 kts 165°
2026-05-07 12:19 49.53953 73.46292 35167 ft 449 kts 165°
2026-05-07 12:19 49.51042 73.48046 35476 ft 450 kts 165°
2026-05-07 12:20 49.48126 73.49802 35782 ft 450 kts 165°
2026-05-07 12:20 49.45206 73.51559 36066 ft 451 kts 164°
2026-05-07 12:20 49.42277 73.53318 36358 ft 451 kts 164°
2026-05-07 12:20 49.39347 73.55076 36655 ft 452 kts 164°
2026-05-07 12:21 49.36410 73.56829 36925 ft 453 kts 164°
2026-05-07 12:21 49.30510 73.60334 36990 ft 464 kts 164°
2026-05-07 12:22 49.24442 73.63941 36973 ft 468 kts 164°
2026-05-07 12:22 49.18368 73.67556 36986 ft 469 kts 164°
2026-05-07 12:23 49.12274 73.71173 36986 ft 469 kts 164°
2026-05-07 12:23 49.06185 73.74777 36984 ft 469 kts 164°
2026-05-07 12:24 49.00092 73.78368 36971 ft 469 kts 164°
2026-05-07 12:24 48.94001 73.81941 36970 ft 469 kts 164°
2026-05-07 12:25 48.87955 73.85472 36979 ft 469 kts 164°
2026-05-07 12:25 48.81853 73.89019 36968 ft 469 kts 164°
2026-05-07 12:26 48.75761 73.92557 36971 ft 469 kts 164°
2026-05-07 12:26 48.69659 73.96073 36979 ft 469 kts 164°
2026-05-07 12:27 48.63562 73.99597 36981 ft 469 kts 164°
2026-05-07 12:27 48.57454 74.03117 36984 ft 469 kts 164°
2026-05-07 12:28 48.51340 74.06622 36991 ft 469 kts 164°
2026-05-07 12:28 48.45243 74.10118 36993 ft 469 kts 164°
2026-05-07 12:29 48.39127 74.13612 36976 ft 469 kts 164°
2026-05-07 12:29 48.33048 74.17087 36983 ft 470 kts 164°
2026-05-07 12:30 48.26936 74.20559 36988 ft 470 kts 164°
2026-05-07 12:30 48.20808 74.24037 36992 ft 470 kts 164°
2026-05-07 12:31 48.14698 74.27484 36991 ft 469 kts 164°
2026-05-07 12:31 48.08586 74.30944 36992 ft 470 kts 163°
2026-05-07 12:32 48.02480 74.34451 36994 ft 470 kts 163°
2026-05-07 12:32 47.96368 74.37950 36980 ft 470 kts 163°
2026-05-07 12:33 47.87183 74.43167 36990 ft 471 kts 163°
2026-05-07 12:33 47.81059 74.46630 36993 ft 471 kts 163°
2026-05-07 12:34 47.74943 74.50077 36985 ft 470 kts 163°
2026-05-07 12:34 47.68849 74.53505 36983 ft 470 kts 163°
2026-05-07 12:35 47.62726 74.56947 36989 ft 470 kts 163°
2026-05-07 12:35 47.56599 74.60381 36974 ft 470 kts 163°
2026-05-07 12:36 47.50476 74.63814 36977 ft 470 kts 163°
2026-05-07 12:36 47.44355 74.67261 36977 ft 471 kts 163°
2026-05-07 12:37 47.38226 74.70704 36972 ft 471 kts 163°
2026-05-07 12:37 47.32137 74.74104 36978 ft 471 kts 163°
2026-05-07 12:38 47.26007 74.77520 36989 ft 471 kts 163°
2026-05-07 12:38 47.19864 74.80945 36973 ft 471 kts 163°
2026-05-07 12:39 47.13729 74.84360 36976 ft 471 kts 163°
2026-05-07 12:39 47.07601 74.87754 36982 ft 471 kts 163°
2026-05-07 12:40 47.01499 74.91120 36989 ft 472 kts 163°
2026-05-07 12:40 46.95354 74.94512 36993 ft 471 kts 162°
2026-05-07 12:41 46.89206 74.97885 36999 ft 471 kts 163°
2026-05-07 12:41 46.83104 75.01468 37004 ft 473 kts 160°
2026-05-07 12:42 46.77093 75.05383 37002 ft 473 kts 158°
2026-05-07 12:42 46.71088 75.09322 37004 ft 473 kts 159°
2026-05-07 12:43 46.65056 75.13155 37003 ft 473 kts 159°
2026-05-07 12:43 46.59019 75.16931 37001 ft 473 kts 159°
2026-05-07 12:44 46.52965 75.20716 37000 ft 473 kts 159°
2026-05-07 12:44 46.46956 75.24489 37000 ft 473 kts 159°
2026-05-07 12:45 46.40910 75.28269 36986 ft 473 kts 159°
2026-05-07 12:45 46.34860 75.32043 36990 ft 473 kts 159°
2026-05-07 12:46 46.28805 75.35806 36993 ft 473 kts 159°
2026-05-07 12:46 46.22798 75.39541 36988 ft 473 kts 159°
2026-05-07 12:47 46.16756 75.43307 36985 ft 473 kts 159°
2026-05-07 12:47 46.10707 75.47089 36986 ft 473 kts 159°
2026-05-07 12:48 46.04665 75.50854 36969 ft 473 kts 159°
2026-05-07 12:48 45.98623 75.54592 36974 ft 472 kts 159°
2026-05-07 12:49 45.92620 75.58303 36974 ft 472 kts 159°
2026-05-07 12:49 45.86588 75.62033 36969 ft 472 kts 159°
2026-05-07 12:50 45.80555 75.65756 36962 ft 472 kts 160°
2026-05-07 12:50 45.74515 75.69469 36966 ft 472 kts 160°
2026-05-07 12:51 45.68511 75.73148 36965 ft 471 kts 160°
2026-05-07 12:51 45.62483 75.76842 36953 ft 471 kts 160°
2026-05-07 12:52 45.56548 75.80463 36957 ft 471 kts 160°
2026-05-07 12:52 45.50516 75.84140 36957 ft 471 kts 160°
2026-05-07 12:53 45.44481 75.87815 36955 ft 471 kts 160°
2026-05-07 12:53 45.38446 75.91474 36953 ft 471 kts 160°
2026-05-07 12:54 45.32453 75.95092 36955 ft 471 kts 160°
2026-05-07 12:54 45.26425 75.98732 36951 ft 470 kts 160°
2026-05-07 12:55 45.20393 76.02368 36935 ft 470 kts 160°
2026-05-07 12:55 45.14377 76.05982 36934 ft 470 kts 160°
2026-05-07 12:56 45.08360 76.09590 36933 ft 469 kts 160°
2026-05-07 12:56 45.02345 76.13185 36930 ft 469 kts 160°
2026-05-07 12:57 44.96336 76.16775 36937 ft 469 kts 160°
2026-05-07 12:57 44.90369 76.20335 36930 ft 469 kts 160°
2026-05-07 12:58 44.84351 76.23905 36928 ft 469 kts 160°
2026-05-07 12:58 44.78335 76.27455 36915 ft 469 kts 160°
2026-05-07 12:59 44.72311 76.31013 36905 ft 470 kts 159°
2026-05-07 12:59 44.67299 76.33978 36906 ft 470 kts 159°
2026-05-07 13:00 44.61259 76.37548 36939 ft 471 kts 159°
2026-05-07 13:00 44.55146 76.41132 36952 ft 480 kts 159°
2026-05-07 13:01 44.48995 76.44730 36957 ft 477 kts 159°
2026-05-07 13:01 44.45940 76.46522 36825 ft 475 kts 159°
2026-05-07 13:01 44.42893 76.48310 36231 ft 476 kts 159°
2026-05-07 13:02 44.39781 76.49918 35423 ft 474 kts 167°
2026-05-07 13:02 44.36589 76.50799 34593 ft 462 kts 177°
2026-05-07 13:02 44.33416 76.50920 33745 ft 453 kts 187°
2026-05-07 13:02 44.30304 76.50322 32768 ft 455 kts 196°
2026-05-07 13:03 44.27266 76.49029 31838 ft 459 kts 205°
2026-05-07 13:03 44.24353 76.47188 30900 ft 461 kts 208°
2026-05-07 13:03 44.21434 76.45283 29946 ft 464 kts 208°
2026-05-07 13:03 44.18514 76.43387 28895 ft 459 kts 207°
2026-05-07 13:04 44.15611 76.41507 27994 ft 461 kts 207°
2026-05-07 13:04 44.12718 76.39633 27055 ft 456 kts 207°
2026-05-07 13:04 44.09856 76.37783 26135 ft 449 kts 207°
2026-05-07 13:04 44.07042 76.35966 25223 ft 442 kts 207°
2026-05-07 13:05 44.04277 76.34183 24335 ft 435 kts 207°
2026-05-07 13:05 44.01557 76.32427 23465 ft 424 kts 207°
2026-05-07 13:05 43.98995 76.30772 23016 ft 398 kts 207°
2026-05-07 13:05 43.96536 76.29189 22524 ft 380 kts 207°
2026-05-07 13:06 43.94152 76.27652 22261 ft 378 kts 207°
2026-05-07 13:06 43.91750 76.26163 22009 ft 379 kts 202°
2026-05-07 13:06 43.89205 76.25182 21753 ft 381 kts 192°
2026-05-07 13:06 43.86564 76.24859 21496 ft 383 kts 182°
2026-05-07 13:07 43.83898 76.25215 21253 ft 387 kts 171°
2026-05-07 13:07 43.81273 76.26032 21008 ft 387 kts 169°
2026-05-07 13:07 43.78646 76.26860 20752 ft 386 kts 169°
2026-05-07 13:07 43.76026 76.27676 20360 ft 386 kts 170°
2026-05-07 13:08 43.73410 76.28482 19812 ft 385 kts 169°
2026-05-07 13:08 43.70798 76.29282 19266 ft 383 kts 169°
2026-05-07 13:08 43.68195 76.30077 18716 ft 382 kts 169°
2026-05-07 13:08 43.65603 76.30868 18160 ft 382 kts 169°
2026-05-07 13:09 43.63014 76.31665 17574 ft 380 kts 169°
2026-05-07 13:09 43.60454 76.32534 17030 ft 378 kts 163°
2026-05-07 13:09 43.58042 76.33956 16502 ft 376 kts 154°
2026-05-07 13:09 43.55720 76.35574 15880 ft 377 kts 155°
2026-05-07 13:10 43.53392 76.37183 15445 ft 372 kts 155°
2026-05-07 13:10 43.51086 76.38766 14956 ft 369 kts 155°
2026-05-07 13:10 43.48793 76.40335 14474 ft 366 kts 155°
2026-05-07 13:10 43.46530 76.41885 14127 ft 359 kts 155°
2026-05-07 13:11 43.44330 76.43397 14008 ft 346 kts 155°
2026-05-07 13:11 43.42211 76.44854 13892 ft 335 kts 155°
2026-05-07 13:11 43.40247 76.46515 13676 ft 330 kts 144°
2026-05-07 13:11 43.38545 76.48608 13157 ft 326 kts 138°
2026-05-07 13:12 43.36910 76.50748 12491 ft 323 kts 138°
2026-05-07 13:12 43.35297 76.52869 11866 ft 319 kts 138°
2026-05-07 13:12 43.33699 76.54967 11267 ft 316 kts 138°
2026-05-07 13:12 43.32114 76.57046 10645 ft 314 kts 137°
2026-05-07 13:13 43.30542 76.59103 10029 ft 312 kts 137°
2026-05-07 13:13 43.28994 76.61129 9699 ft 299 kts 137°
2026-05-07 13:13 43.27571 76.63126 9365 ft 289 kts 129°
2026-05-07 13:13 43.26498 76.65419 8899 ft 284 kts 116°
2026-05-07 13:14 43.25828 76.67945 8397 ft 281 kts 102°
2026-05-07 13:14 43.25418 76.70564 7791 ft 281 kts 102°
2026-05-07 13:14 43.24990 76.73171 7077 ft 287 kts 103°
2026-05-07 13:14 43.24537 76.75870 6539 ft 284 kts 103°
2026-05-07 13:15 43.24133 76.78442 6335 ft 267 kts 96°
2026-05-07 13:15 43.24218 76.80891 6207 ft 249 kts 76°
2026-05-07 13:15 43.24857 76.83050 5840 ft 242 kts 57°
2026-05-07 13:15 43.25826 76.84899 5462 ft 236 kts 52°
2026-05-07 13:16 43.26827 76.86696 4945 ft 237 kts 53°
2026-05-07 13:16 43.27767 76.88513 4576 ft 230 kts 55°
2026-05-07 13:16 43.28655 76.90291 4274 ft 221 kts 56°
2026-05-07 13:16 43.29499 76.91987 4005 ft 213 kts 55°
2026-05-07 13:17 43.30312 76.93621 3745 ft 200 kts 56°
2026-05-07 13:17 43.31056 76.95117 3507 ft 178 kts 56°
2026-05-07 13:17 43.31721 76.96454 3285 ft 163 kts 56°
2026-05-07 13:17 43.32349 76.97716 3080 ft 158 kts 55°
2026-05-07 13:18 43.32963 76.98952 2880 ft 155 kts 55°
2026-05-07 13:18 43.33567 77.00171 2669 ft 154 kts 55°
2026-05-07 13:18 43.34161 77.01392 2469 ft 153 kts 55°
2026-05-07 13:18 43.34770 77.02589 2277 ft 153 kts 54°
2026-05-07 13:19 43.35331 77.03715 2225 ft 122 kts 55°
2026-05-07 13:19 43.35632 77.04328 2224 ft 35 kts 56°
2026-05-07 13:19 43.35777 77.04618 2223 ft 40 kts 56°
2026-05-07 13:19 43.35935 77.04934 2224 ft 36 kts 57°
2026-05-07 13:20 43.35914 77.05117 2226 ft 20 kts 165°
2026-05-07 13:20 43.35801 77.05120 2226 ft 18 kts 225°
2026-05-07 13:20 43.35722 77.04966 2228 ft 23 kts 236°
2026-05-07 13:20 43.35622 77.04765 2226 ft 30 kts 235°
2026-05-07 13:21 43.35485 77.04488 2228 ft 40 kts 236°
2026-05-07 13:21 43.35318 77.04153 2226 ft 43 kts 236°
2026-05-07 13:21 43.35154 77.03822 2226 ft 41 kts 236°
2026-05-07 13:21 43.34996 77.03500 2227 ft 40 kts 235°
2026-05-07 13:22 43.34840 77.03183 2227 ft 40 kts 240°
2026-05-07 13:22 43.34784 77.02840 2228 ft 35 kts 270°
2026-05-07 13:22 43.34773 77.02506 2226 ft 34 kts 266°
2026-05-07 13:22 43.34786 77.02236 2224 ft 26 kts 274°
2026-05-07 13:23 43.34799 77.01979 2229 ft 25 kts 273°
2026-05-07 13:23 43.34809 77.01727 2229 ft 27 kts 274°
2026-05-07 13:23 43.34850 77.01506 2228 ft 14 kts 338°
2026-05-07 13:23 43.34946 77.01460 2226 ft 16 kts 333°
2026-05-07 13:24 43.35002 77.01353 2224 ft 16 kts 252°
2026-05-07 13:24 43.34978 77.01279 2226 ft 0 kts 245°